Regional Weather Roundup
Issued by NWS

Home | Current Version | Previous Version | Text Only | Print | Product List | Glossary Off
Versions: 1 2 3 4 5 6 7 8 9 10 11 12 13 14 15 16 17 18 19 20 21 22 23 24 25 26 27 28 29 30 31 32 33 34 35 36 37 38 39 40 41 42 43 44 45 46 47 48 49 50

000
ASUS43 KMKX 131810
RWRWI

WISCONSIN REGIONAL WEATHER ROUNDUP
NATIONAL WEATHER SERVICE MILWAUKEE/SULLIVAN WI
1200 PM CST WED DEC 13 2017

NOTE: "FAIR" INDICATES FEW OR NO CLOUDS BELOW 12,000 FEET WITH NO
SIGNIFICANT WEATHER AND/OR OBSTRUCTIONS TO VISIBILITY.

WIZ001-002-006>008-014>016-023>028-131900-
NORTHWEST WISCONSIN

CITY           SKY/WX    TMP DP  RH WIND       PRES   REMARKS
SUPERIOR ARPT  LGT SNOW  25  21  85 NE17G23   29.59F WCI  12
6HR MIN TEMP:  18; 6HR MAX TEMP:  25; 6HR PCP:  0.09;

ASHLAND        LGT SNOW  17  12  80 NE9       29.60R WCI   6
6HR MIN TEMP:  16; 6HR MAX TEMP:  17; 6HR PCP:  0.12;

HAYWARD        FLURRIES  18  11  74 N13       29.53R WCI   5
6HR MIN TEMP:  17; 6HR MAX TEMP:  18; 6HR PCP:  0.22;

SIREN          CLOUDY    21  15  76 N12       29.55R WCI   9
6HR MIN TEMP:  19; 6HR MAX TEMP:  21;

CUMBERLAND     CLOUDY    19  14  79 N15       29.50R WCI   5
RICE LAKE      CLOUDY    21  15  78 N14       29.51R WCI   8
6HR MIN TEMP:  20; 6HR MAX TEMP:  22;

CHETEK         CLOUDY    20  15  78 N7        29.49R WCI  12
6HR MIN TEMP:  20; 6HR MAX TEMP:  21; 6HR PCP:  0.01;

LADYSMITH      LGT SNOW  18  12  77 N12       29.49R WCI   6
6HR MIN TEMP:  17; 6HR MAX TEMP:  19; 6HR PCP:  0.03;

EAU CLAIRE     CLOUDY    22  16  78 N10       29.47R WCI  11
6HR MIN TEMP:  20; 6HR MAX TEMP:  22; 6HR PCP:  0.02;

MENOMONIE      CLOUDY    24  19  78 NW9       29.48R WCI  15
6HR MIN TEMP:  22; 6HR MAX TEMP:  24;

NEW RICHMOND   CLOUDY    22  16  78 NW17      29.54R WCI   7
6HR MIN TEMP:  21; 6HR MAX TEMP:  23;

OSCEOLA        CLOUDY    22  16  78 NW13G25   29.59R WCI  10
6HR MIN TEMP:  21; 6HR MAX TEMP:  23;

$$

WIZ003>005-009-010-017-018-131900-
NORTH CENTRAL WISCONSIN

CITY           SKY/WX    TMP DP  RH WIND       PRES   REMARKS
MANITOWISH WTR LGT SNOW  14  11  89 NE8       29.46S WCI   2
6HR MIN TEMP:  10; 6HR MAX TEMP:  14; 6HR PCP:  0.05;

ARBOR VITAE    LGT SNOW  17  13  85 NE6       29.44S WCI   8
6HR MIN TEMP:  12; 6HR MAX TEMP:  17; 6HR PCP:  0.09;

WOODRUFF       LGT SNOW  17  13  85 NE6       29.44S WCI   8
6HR MIN TEMP:  12; 6HR MAX TEMP:  17; 6HR PCP:  0.09;

RHINELANDER    LGT SNOW  15  12  88 NE8       29.42F VSB 3/4 WCI   4
6HR MIN TEMP:  11; 6HR MAX TEMP:  15; 6HR PCP:  0.15;

EAGLE RIVER    LGT SNOW  14  10  81 E12       29.44F VSB 3/4 WCI   1
6HR MIN TEMP:  10; 6HR MAX TEMP:  14;

LAND O LAKES   LGT SNOW  15  10  83 NE10G16   29.48F WCI   2
6HR MIN TEMP:  10; 6HR MAX TEMP:  15;

PHILLIPS       LGT SNOW  14  10  84 N7        29.45R WCI   4
6HR MIN TEMP:  12; 6HR MAX TEMP:  14; 6HR PCP:  0.07;

TOMAHAWK       LGT SNOW  15  11  84 NE6       29.42S VSB 1   WCI   7
6HR MIN TEMP:  12; 6HR MAX TEMP:  15;

MEDFORD        LGT SNOW  16  12  84 NE7       29.40R WCI   6
6HR MIN TEMP:  13; 6HR MAX TEMP:  16; 6HR PCP:  0.01;

MERRILL        LGT SNOW  17  13  84 NE10      29.40F WCI   5
6HR MIN TEMP:  13; 6HR MAX TEMP:  17; 6HR PCP:  0.07;

$$

WIZ029-030-035-036-043>047-131900-
CENTRAL WISCONSIN

CITY           SKY/WX    TMP DP  RH WIND       PRES   REMARKS
WAUSAU         LGT SNOW  18  14  84 NE6       29.37F VSB 1   WCI  10
6HR MIN TEMP:  14; 6HR MAX TEMP:  18; 6HR PCP:  0.04;

MOSINEE        LGT SNOW  18  16  93 N8        29.38F VSB 3/4 WCI   7
MARSHFIELD     LGT SNOW  19  15  84 NE8       29.37R VSB 3/4 WCI   9
6HR MIN TEMP:  17; 6HR MAX TEMP:  19; 6HR PCP: TRACE;

STEVENS POINT  CLOUDY    19  18  95 N9        29.37F WCI   8
6HR MIN TEMP:  15; 6HR MAX TEMP:  19;

WAUPACA        CLOUDY    27  22  82 N3        29.36F
6HR MIN TEMP:  19; 6HR MAX TEMP:  27;

WAUTOMA        CLOUDY    23  20  88 NE7       29.34F WCI  15
6HR MIN TEMP:  19; 6HR MAX TEMP:  23;

WISC RAPIDS    CLOUDY    21  17  84 NE9       29.38F WCI  11
6HR MIN TEMP:  18; 6HR MAX TEMP:  21;

CAMP DOUGLAS   CLOUDY    25  18  74 N7        29.35F WCI  17
$$

WIZ011>013-019>022-031-037>040-048>050-131900-
NORTHEAST WISCONSIN

CITY           SKY/WX    TMP DP  RH WIND       PRES   REMARKS
ANTIGO         LGT SNOW  18  15  90 NE14      29.38F WCI   4
6HR MIN TEMP:  10; 6HR MAX TEMP:  18;

SHAWANO        LGT SNOW  24  22  89 NE8       29.38F WCI  15
6HR MIN TEMP:  17; 6HR MAX TEMP:  25; 6HR PCP:  0.07;

OCONTO         CLOUDY    27  24  91 E10G20    29.42F VSB 1/2 WCI  17
6HR MIN TEMP:  16; 6HR MAX TEMP:  27; 6HR PCP:  0.12;

STURGEON BAY   SNOW      26  24  92 E13G23    29.43F VSB 1/4 WCI  15
6HR MIN TEMP:  16; 6HR MAX TEMP:  26; 6HR PCP:  0.09;

GREEN BAY      SNOW      28  25  88 E14       29.36F VSB 1/2 WCI  17
6HR MIN TEMP:  18; 6HR MAX TEMP:  30; 6HR PCP:  0.37;

MANITOWOC      SNOW      28  27  96 E23G32    29.35F VSB 1/4 WCI  14
6HR MIN TEMP:  24; 6HR MAX TEMP:  32; 6HR PCP:  0.03;

APPLETON       SNOW      27  23  86 CALM      29.34F VSB 1/2
CLINTONVILLE   LGT SNOW  25  19  80 N9        29.37F WCI  15
OSHKOSH        SNOW      26  22  84 SE5       29.34F VSB 1/4 WCI  20
6HR MIN TEMP:  19; 6HR MAX TEMP:  27; 6HR PCP:  0.02;

$$

WIZ032>034-041-042-053>061-131900-
SOUTHWEST WISCONSIN

CITY           SKY/WX    TMP DP  RH WIND       PRES   REMARKS
LA CROSSE      CLOUDY    29  21  72 NW16      29.41R WCI  17
6HR MIN TEMP:  29; 6HR MAX TEMP:  32;

SPARTA         CLOUDY    26  19  74 N8        29.40R WCI  18
6HR MIN TEMP:  26; 6HR MAX TEMP:  28;

VIROQUA        CLOUDY    29  24  84 NW14G21   29.34R WCI  18
6HR MIN TEMP:  24; 6HR MAX TEMP:  29;

BOSCOBEL       PTSUNNY   35  24  64 NW18G25   29.36R WCI  24
6HR MIN TEMP:  28; 6HR MAX TEMP:  36;

PRAIRIE DU CHI PTSUNNY   36  24  62 NW22G29   29.37R WCI  24
6HR MIN TEMP:  30; 6HR MAX TEMP:  38;

PLATTEVILLE    CLOUDY    35  29  77 NW21G29   29.30S WCI  24
6HR MIN TEMP:  27; 6HR MAX TEMP:  37;

$$

WIZ056-057-062-063-064-067-068-131900-
SOUTH CENTRAL WISCONSIN

CITY           SKY/WX    TMP DP  RH WIND       PRES   REMARKS
REEDSBURG      CLOUDY    29  22  74 N7        29.31F WCI  22
6HR MIN TEMP:  26; 6HR MAX TEMP:  30;

BARABOO/DELLS  CLOUDY    29  20  68 NE6       29.30F WCI  23
6HR MIN TEMP:  26; 6HR MAX TEMP:  30;

LONE ROCK      CLOUDY    32  24  72 NW7       29.32R WCI  26
6HR MIN TEMP:  28; 6HR MAX TEMP:  32; 6HR PCP: TRACE;

MINERAL POINT  CLOUDY    36  28  75 NW14G22   29.28S WCI  27
MADISON        CLOUDY    31  22  69 NW7       29.30S WCI  24
6HR MIN TEMP:  25; 6HR MAX TEMP:  31; 6HR PCP: TRACE;

MIDDLETON      CLOUDY    33  24  69 NW8       29.30R WCI  26
6HR MIN TEMP:  28; 6HR MAX TEMP:  33;

WATERTOWN      CLOUDY    29  23  77 CALM      29.29F
6HR MIN TEMP:  22; 6HR MAX TEMP:  29;

MONROE         CLOUDY    34  25  69 W15       29.27S WCI  24
JANESVILLE     CLOUDY    34  23  64 SW8       29.27F WCI  27
$$

WIZ051-052-058>065-066-070>072-131900-
SOUTHEAST WISCONSIN

CITY           SKY/WX    TMP DP  RH WIND       PRES   REMARKS
MILWAUKEE      CLOUDY    33  21  61 S9        29.31F WCI  25
6HR MIN TEMP:  22; 6HR MAX TEMP:  33; 6HR PCP:  0.01;

WAUKESHA       LGT SNOW  28  19  69 S7        29.31F WCI  21
MILWAUKEE/TIMM SNOW      28  21  74 S5        29.31F VSB 1/2 WCI  23
RACINE         CLOUDY    32  20  61 S7G16     29.32F WCI  26
6HR MIN TEMP:  22; 6HR MAX TEMP:  32; 6HR PCP: TRACE;

BURLINGTON       N/A    N/A N/A N/A MISG        N/A
KENOSHA        CLOUDY    33  20  58 S10       29.30F WCI  25
6HR MIN TEMP:  23; 6HR MAX TEMP:  33; 6HR PCP: TRACE;

FOND DU LAC    CLOUDY    28  19  69 SE5       29.33F WCI  23
6HR MIN TEMP:  22; 6HR MAX TEMP:  28; 6HR PCP: TRACE;

SHEBOYGAN      LGT SNOW  29  26  89 S9        29.33F VSB 1   WCI  20
6HR MIN TEMP:  23; 6HR MAX TEMP:  32; 6HR PCP: TRACE;

WEST BEND      LGT SNOW  27  25  93 SE3       29.30F VSB 1
JUNEAU         CLOUDY    27  23  87 CALM      29.32S
6HR MIN TEMP:  21; 6HR MAX TEMP:  28;

$$

LSZ147-162-131900-
LAKE SUPERIOR

STATION/POSITION TIME  TEMP    WIND        PRES    WAVE
                       AIR SEA DIR/SP/G            HT/PER
                 (UTC) (F)     (DEG/KT/KT) (MB)    (FT/S)
DEVILS ISLAND    1800   22      90/ 21/ 24 1004.3R
SAXON HARBOR     1730   18                 1002.0R
$$

LMZ867-665-643>646-131900-
LAKE MICHIGAN

STATION/POSITION TIME  TEMP    WIND        PRES    WAVE
                       AIR SEA DIR/SP/G            HT/PER
                 (UTC) (F)     (DEG/KT/KT) (MB)    (FT/S)
NORTHPORT PIER   1745   25      90/ 21      999.0F
KEWAUNEE LAKESHO 1742   27     110/ 20/ 2



USA.gov is the U.S. government's official web portal to all federal, state and local government web resources and services.